* Astronomy

Members Login
Post Info TOPIC: Asteroid 2012 BX85


L

Posts: 131433
Date:
Asteroid 2012 BX85
Permalink  
 


Orbital elements:
2012 BX85
Epoch 2012 Jan. 14.0 TT = JDT 2455940.5                 MPC
M 286.99245              (2000.0)            P               Q
n   0.00339720     Peri.  259.33806     -0.83884231     +0.54415674
a  43.8250250      Node   313.62693     -0.49077140     -0.76817866
e   0.1024533      Incl.    1.21870     -0.23555680     -0.33733512
P 290              H    5.5           G   0.15
From 14 observations 2012 Jan. 23-29.

MPEC 2012 - B100



__________________
Page 1 of 1  sorted by
Quick Reply

Please log in to post quick replies.



Create your own FREE Forum
Report Abuse
Powered by ActiveBoard